Regional Weather Roundup
Issued by NWS Green Bay, WI

Home | Current Version | Previous Version | Graphics & Text | Print | Product List | Glossary Off
Versions: 1 2 3 4 5 6 7 8 9 10 11 12 13 14 15 16 17 18 19 20 21 22 23 24 25 26 27 28 29 30 31 32 33 34 35 36 37 38 39 40 41 42 43 44 45 46 47 48 49 50

968
ASUS43 KGRB 292211
RWRGRB

NORTH-CENTRAL AND NORTHEAST WISCONSIN REGIONAL WEATHER ROUNDUP
NATIONAL WEATHER SERVICE GREEN BAY WI
500 PM CDT FRI JUL 29 2016

WIZ005-009-010>012-018-019-292300-
NORTH CENTRAL WISCONSIN

CITY           SKY/WX    TMP DP  RH WIND       PRES   REMARKS
IRONWOOD       SUNNY     72  55  56 N12       30.05S
MANITOWISH WTR SUNNY     75  52  44 CALM      30.06S
ARBOR VITAE    MOSUNNY   75  56  50 N3        30.06S
EAGLE RIVER    SUNNY     77  49  38 SE6       30.05S
LAND O LAKES   CLOUDY    75  49  38 E5        30.07S
RHINELANDER    MOSUNNY   76  54  46 E7        30.05F
PHILLIPS       MOSUNNY   76  57  51 NE5       30.04F
ANTIGO         CLOUDY    69  60  74 CALM      30.05S
TOMAHAWK       CLOUDY    74  56  51 CALM      30.04F
MERRILL        CLOUDY    73  62  68 E3        30.05S
$$

WIZ013-073-292300-
NORTHEAST WISCONSIN

CITY           SKY/WX    TMP DP  RH WIND       PRES   REMARKS
IRON MOUNTAIN  MOSUNNY   75  52  44 E3        30.03F
MARINETTE      SUNNY    N/A N/A N/A NE12      30.04S
OCONTO         SUNNY     75  58  55 E10       30.02R
$$

WIZ017-030-035>037-045-292300-
CENTRAL WISCONSIN

CITY           SKY/WX    TMP DP  RH WIND       PRES   REMARKS
MEDFORD        CLOUDY    72  61  69 CALM      30.05R
WAUSAU         CLOUDY    73  61  65 E7        30.02S
MOSINEE        PTSUNNY   73  63  68 E6        30.04S
MARSHFIELD     CLOUDY    74  59  59 E7        30.02S
WISC RAPIDS    CLOUDY    72  62  71 E7        30.03S
STEVENS POINT  CLOUDY    70  61  74 E8        30.03S
WAUPACA        MOSUNNY   78  64  61 E7        30.01S
SHAWANO        CLOUDY    77  58  52 E10G16    30.03R
CLINTONVILLE   CLOUDY    77  59  53 E9        30.01S
WAUTOMA        CLOUDY    70  65  84 NE8       30.01S
$$

WIZ038-039-048-051-292300-
FOX VALLEY

CITY           SKY/WX    TMP DP  RH WIND       PRES   REMARKS
NWS GREEN BAY  PTSUNNY   74  64  71 NE14      30.01S
APPLETON       CLOUDY    73  57  56 E9        30.00S
OSHKOSH        CLOUDY    75  63  66 NE12      30.00R
FOND DU LAC    CLOUDY    77  64  64 E7        29.99S
$$

WIZ022-050-052-292300-
EAST CENTRAL WISCONSIN

CITY           SKY/WX    TMP DP  RH WIND       PRES   REMARKS
EPHRAIM        FAIR      74  53  48 NE10      30.02F
WASHINGTON ISL NOT AVBL
STURGEON BAY   SUNNY     75  53  46 NE14G20   30.03S
MANITOWOC      MOSUNNY   73  60  63 MISG      30.01R
SHEBOYGAN      CLOUDY    72  62  71 NE15      30.00S
$$

LMZ563-521-522-541>543-292300-
LAKESHORE

STATION/POSITION TIME  TEMP    WIND        PRES    VSBY  WAVE
                       AIR SEA DIR/SP/G                  HT/PER
                 (UTC) (F)     (DEG/KT/KT) (MB)    (MI)  (FT/S)
SHEBOYGAN LKSHOR 2200   66      10/ 14/ 14 1016.1S
KEWAUNEE LKSHORE 2100   70      30/  5/ 10 1015.9F
ALGOMA MARINA    2113           70/ 16/ 20   N/A
NORTHPORT PIER   2100   70      60/  9/ 11 1016.9F
N MID LAKE BUOY  2150   71 70   60/ 12/ 14 1016.1F         1/ 3
S GREEN BAY BUOY 2100   72 71   70/ 16/ 19 1015.8
SISTER BAY LKSHO 2121   76      80/  8/ 13   N/A
CHAMBERS ISLAND  2100   72      50/ 10/ 13 1016.9F
MENOMINEE LKSHOR 2100   72      30/ 12/ 15 1016.0F
$$




USA.gov is the U.S. government's official web portal to all federal, state and local government web resources and services.